Tracking 22438 objects as of 25-Feb-2021
HD Live streaming from Space Station
objects crossing your sky now

HINCUBE

Track HINCUBE now!
10-day predictions
HINCUBE is classified as:


NORAD ID: 39445
Int'l Code: 2013-066AF
Perigee: 588.9 km
Apogee: 670.4 km
Inclination: 97.6 °
Period: 97.2 minutes
Semi major axis: 7000 km
RCS: Unknown
Launch date: November 21, 2013
Source: Norway (NOR)
Launch site: Orenburg, Russia (OREN)

Uplink (MHz):
Downlink (MHz): 437.305
Beacon (MHz):
Mode:
Call sign:
Status: Inactive

aabbcc
Your satellite tracking list
Your tracking list is empty




NASA's NSSDC Master Catalog

Two Line Element Set (TLE):
1 39445U 13066AF  21055.77087713  .00000399  00000-0  55024-4 0  9995
2 39445  97.5770  48.1935 0058217 161.8011 198.5304 14.82156474390692
Source of the keplerian elements: AFSPC